Weather in Buraydah

Saudi Arabia     26°20′56″N   43°57′36″E
temp.,
°C
wind,
m/s
gust,
m/s
humid.,
%
clouds,
%
prec.,
mm/h
press.,
hPa
HPBL,
m
23 september, thu
thu2300:00+29se561721 0.0 100567
03:00+27se581938 0.0 100585
06:00+26se68205 0.0 100683
09:00+33wsw22130 0.0 1006339
12:00+39n4490 0.0 10052794
15:00+40n5590 0.0 10034282
18:00+36nne44113 0.0 100428
21:00+31ne33145 0.0 100615
24 september, fri
fri2400:00+29ene44150 0.0 100622
03:00+26wnw11194 0.0 100711
06:00+26nw33190 0.0 100816
09:00+32ene22130 0.0 1008351
12:00+38ese12103 0.0 10071628
15:00+39se2290 0.0 10043948
18:00+34ese22120 0.0 100511
21:00+33ene44130 0.0 100726
25 september, sat
sat2500:00+29ese57163 0.0 100875
03:00+27n44195 0.0 100922
06:00+25ne33215 0.0 101119
09:00+32ese331358 0.0 1011408
12:00+37ese34105 0.0 10091861
15:00+39ese22963 0.0 10073536
18:00+35e4411100 0.0 100718
21:00+31e6121563 0.0 1009144
26 september, sun
sun2600:00+28e461970 0.0 100971
03:00+26ne452281 0.0 101047
06:00+24ne342665 0.0 101229
09:00+30ene451881 0.0 1013547
12:00+35ese331483 0.0 10111613
15:00+37ne21125 0.0 10082622
18:00+33ne56165 0.0 100855
21:00+29ene510225 0.0 1010125
27 september, mon
mon2700:00+27ene510255 0.0 1009147
03:00+24ne44280 0.0 101034
06:00+23ne33290 0.0 101215
09:00+29nne12190 0.0 1012419
12:00+34n11150 0.0 10091280
15:00+36nnw23130 0.0 10062192
18:00+33ne44160 0.0 100726
21:00+29ene58180 0.0 100887